Погода в Чинееве

Россия / Курганская область     55°28′28″N   64°38′49″E
темп.,
°C
ветер,
м/с
пор.,
м/с
влажн.,
%
обл.,
%
осадки,
мм/ч
давл.,
гПа
погр.,
м
18 мая, вт
вт1823:00+20ссз61255100 0.5 1015463
02:00+16з347374 0.3 101470
05:00+16з51278100 0.6 1014296
08:00+19юз456856 4.6 1013166
11:00+25зсз5746100 4.6 10131267
14:00+28сз573246 0.0 10123242
17:00+24ссз683973 0.1 10121494
20:00+20ссв695758 0.0 1015935
19 мая, ср
ср1923:00+15ссв6116997 0.7 1017759
02:00+11ссв51079100 0.0 1019500
05:00+11св511765 0.0 1021653
08:00+14св68565 0.0 10221043
11:00+17св674262 0.0 10231494
14:00+19св56345 0.0 10221718
17:00+20св45349 0.0 10221857
20:00+16св344879 0.0 102368
20 мая, чт
чт2023:00+12св2258100 0.0 102426
02:00+11вюв1158100 0.0 102410
05:00+10зюз11615 0.0 102510
08:00+16з234443 0.0 1025417
11:00+21зсз44355 0.0 10241582
14:00+23з453114 0.0 10221688
17:00+24зсз45315 0.0 10211724
20:00+19зсз22465 0.0 102124
21 мая, пт
пт2123:00+16з33530 0.0 102143
02:00+14з35550 0.0 102177
05:00+13з36600 0.0 102190
08:00+20зсз34439 0.0 1021293
11:00+25зюз32325 0.0 10211325
14:00+27зюз33284 0.0 10202103
17:00+27юз33279 0.0 10202059
20:00+22ююз22390 0.0 102017
22 мая, сб
сб2223:00+18юз33455 0.0 102032
02:00+17ююз33441 0.0 101936
05:00+15юз34490 0.0 102062
08:00+21ю35380 0.0 1019333
11:00+26ююз56280 0.0 10191730
14:00+28юз572882 0.0 10173078
17:00+27зюз573067 0.0 10172792
20:00+22зюз35453 0.0 101792